Location: De Greiden
(52.9496°N, 5.9137°E)
Time: 02:01:32
(UTC+00:00)

Cosmos 1626 - Pass Details

Date: 24 January 2021
Orbit: 490 x 494 km, 82.5° (Epoch: 26 February)

Event Time Altitude Azimuth Distance (km) Brightness Sun altitude
Rises 16:43:11 0° 196° (SSW) 2,566 6.4 -5.7°
Reaches altitude 10° 16:45:18 10° 199° (SSW) 1,688 5.5 -6.0°
Maximum altitude 16:48:58 66° 283° (WNW) 543 2.5 -6.5°
Drops below altitude 10° 16:52:41 10° 6° (N) 1,700 4.5 -7.1°
Sets 16:54:49 0° 10° (N) 2,587 5.4 -7.3°
